Weather in Novorossiysk

Russia / Krasnodar Krai     44°43′26″N   37°46′08″E
В апреле 2022 года жителям России запретили посещать сайт meteo.paraplan.net по решению Генеральной прокуратуры. Аудитория сайта уменьшилась в 10 раз. Владельцы сайта не видят смысла в поддержке погодного сервера в таких условиях. Сайт будет закрыт в октябре.
temp.,
°C
wind,
m/s
gust,
m/s
humid.,
%
clouds,
%
prec.,
mm/h
press.,
hPa
HPBL,
m
3 october, mon
mon300:00+16wnw61087100 6.3 1007894
03:00+14wnw6107622 6.5 1010872
06:00+13wnw37770 0.0 1012560
09:00+16wnw4863100 0.0 10131286
12:00+18w57475 0.1 10141420
15:00+19wsw444485 0.1 10141399
18:00+15s1260100 0.0 1014380
21:00+14ese2273100 0.0 1014150
4 october, tue
tue400:00+14e1174100 0.0 101475
03:00+13ne117474 0.0 101457
06:00+13n1175100 0.0 101438
09:00+17n116186 0.0 1015343
12:00+20wsw334696 0.0 10151356
15:00+20w224751 0.0 10151120
18:00+16nnw3369100 0.0 1017203
21:00+14nne127554 0.0 101862
5 october, wed
wed500:00+14nne227599 0.0 101959
03:00+14n2275100 0.0 102074
06:00+13n228751 0.0 102166
09:00+16n247661 0.3 1023433
12:00+18n445842 0.4 10241051
15:00+19nnw334013 0.4 10231729
18:00+15n35510 0.0 1025398
21:00+12nne23650 0.0 1026113
6 october, thu
thu600:00+11n23660 0.0 102688
03:00+11nne22700 0.0 102662
06:00+11n237095 0.0 102670
09:00+15n255242 0.0 1026539
12:00+18n344189 0.0 10251555
15:00+19n443750 0.0 10251681
18:00+14n37585 0.0 1026294
21:00+11nne34725 0.0 1026178
7 october, fri
fri700:00+10nne34710 0.0 1026117
03:00+9nne37720 0.0 1025193
06:00+9nne38725 0.0 1025184
09:00+13ne412505 0.0 1024496
12:00+18ne68365 0.0 1023805
15:00+20ne573259 0.0 10211080
18:00+17ne51139100 0.0 1021676
21:00+16ne5134484 0.0 1021621